Theta_e
355 357 358 358 357 358 357 356 356 357 358 353 354 354 355 358 356 357 357 356 357 357 356 355 354 354 356 354 355 355 353 355 354 351 350 352 352 354 355 356 356 357 352 344 342 343 345 342 338 340 341 341 339 336 333 333 332 331 329 328 326 325 326 325 326 326 326 325 325 326 325 326 325 326 326 326 325 325 325 325 326 325 325 326 326 326 326 326 326 326 327 327 328 328 328 328 328
358 360 360 359 358 359 356 356 355 354 353 351 353 355 355 358 357 357 358 358 357 357 355 354 354 356 356 356 356 355 354 354 355 353 351 351 352 353 355 355 356 356 350 343 343 342 343 340 336 338 340 341 338 336 334 333 332 331 329 328 327 325 326 325 326 326 326 326 326 326 325 325 325 325 326 325 325 325 325 326 326 326 326 326 326 326 326 326 326 325 325 326 326 328 328 328 329
361 361 361 360 358 358 358 357 353 349 351 351 353 356 356 358 358 358 358 358 357 356 354 353 355 357 357 356 356 355 355 353 353 353 351 351 352 352 353 355 356 354 348 346 345 339 339 336 335 338 340 340 338 336 334 332 333 332 329 328 327 326 326 325 325 325 326 326 326 326 325 326 326 326 326 325 325 325 325 326 325 325 325 325 326 325 326 326 326 326 326 326 326 326 326 327 328
361 361 361 360 357 357 358 357 354 348 347 350 352 357 357 357 358 357 358 357 354 354 352 353 356 357 356 356 356 354 353 353 352 352 352 352 352 352 352 355 354 353 351 351 347 335 335 334 334 337 339 340 338 337 334 332 332 331 329 328 327 327 326 325 325 325 325 325 325 326 326 326 326 326 326 326 325 326 326 326 326 326 326 326 326 326 326 326 326 326 326 326 326 326 325 326 326
361 360 359 360 357 357 357 355 354 348 347 351 354 358 357 356 358 356 358 357 355 354 352 353 354 356 355 357 357 355 354 354 351 351 352 351 351 350 351 353 353 353 353 353 347 333 333 333 333 336 337 339 337 336 334 332 331 331 329 327 327 327 326 325 325 325 325 325 325 325 325 326 326 325 326 325 325 326 326 326 326 325 326 325 326 326 326 326 326 326 326 326 325 326 326 326 326
361 360 358 359 357 358 357 352 348 348 353 356 356 358 356 356 357 357 358 358 357 356 353 353 354 356 357 356 356 355 354 355 352 351 352 350 351 350 349 350 350 352 351 353 347 332 331 333 333 335 336 337 337 336 334 332 331 330 329 327 326 326 326 325 325 325 325 325 325 325 325 325 325 325 325 325 325 325 325 325 325 325 325 325 325 325 326 325 325 326 326 326 326 326 326 326 326
359 359 358 357 356 358 357 348 347 352 357 357 356 357 356 355 357 356 357 356 356 356 355 354 355 356 356 356 355 355 354 353 352 350 350 351 351 350 348 347 348 350 350 353 346 330 330 331 332 334 334 335 336 335 334 332 331 330 330 327 325 325 326 325 326 325 325 325 325 325 325 325 325 324 325 325 325 325 324 324 325 325 325 325 326 325 325 325 325 326 326 326 326 326 326 326 326
358 358 359 358 358 358 355 351 351 356 357 356 357 357 355 354 355 355 354 355 355 355 356 355 355 355 356 355 355 355 353 351 351 350 350 351 351 348 347 347 348 348 350 353 343 330 329 328 330 331 332 334 335 335 333 332 331 331 330 327 325 325 325 325 325 325 325 325 325 325 324 325 324 324 324 324 324 324 324 325 325 325 325 325 325 324 325 325 325 326 325 326 325 326 326 326 326
358 358 359 357 356 353 351 352 353 355 356 356 358 357 355 354 354 354 353 355 356 355 356 356 355 355 355 355 355 356 354 352 350 349 350 350 350 347 347 347 347 346 350 351 338 330 329 324 326 327 329 332 333 334 333 332 331 331 331 328 325 325 324 324 324 325 325 325 324 325 325 325 324 325 325 324 324 324 324 325 324 325 324 324 324 325 326 326 328 328 328 327 326 326 325 326 326
359 361 360 356 349 344 345 350 354 355 356 356 356 356 355 354 353 353 353 354 355 355 356 355 355 355 354 354 354 355 353 352 351 350 350 349 349 348 348 347 346 346 350 346 332 329 329 323 323 324 327 330 332 333 332 331 330 331 331 329 326 324 325 325 325 324 324 324 324 324 324 324 324 324 324 324 324 324 325 325 325 325 325 326 328 330 332 334 334 335 335 333 332 329 326 325 326
358 357 356 351 341 338 340 348 354 356 357 355 356 356 353 352 352 354 356 354 355 355 356 355 354 353 352 352 353 354 353 353 352 350 349 349 348 347 348 347 346 347 350 348 332 324 325 320 321 324 326 330 331 331 330 329 329 330 331 330 328 325 325 325 325 325 324 325 325 325 325 325 324 325 325 325 325 325 325 325 326 327 329 332 335 336 337 339 339 340 340 340 339 337 333 328 326
354 349 350 345 337 339 342 346 354 357 357 357 357 356 352 351 351 354 356 355 356 356 357 355 353 351 351 352 353 353 354 354 352 350 350 350 349 348 348 347 347 348 351 351 339 323 321 322 322 325 326 328 329 328 327 327 327 329 330 330 328 326 325 325 325 325 325 325 325 324 324 324 324 325 324 324 325 327 328 330 332 333 335 337 338 338 339 341 341 341 341 341 342 341 340 337 333
349 346 344 342 340 344 343 345 352 355 355 356 357 355 353 351 352 353 355 356 356 355 355 354 353 352 352 353 354 353 353 353 353 352 352 352 351 350 348 347 347 348 349 351 347 333 323 323 326 327 327 327 328 328 327 328 329 329 330 329 329 328 327 327 326 326 326 326 327 328 328 329 329 328 329 330 332 334 336 336 336 336 337 337 338 340 341 342 342 341 341 340 341 341 341 341 340
347 344 342 341 343 345 343 344 347 349 351 354 356 353 352 352 353 353 356 356 355 355 355 354 353 353 352 352 354 354 353 353 354 353 353 351 349 349 348 347 347 348 346 348 350 346 336 329 327 327 327 328 328 329 329 330 330 330 332 333 332 331 331 333 334 334 335 334 336 338 339 340 339 339 340 340 339 339 339 339 339 337 336 338 339 341 342 342 341 340 341 340 340 341 341 341 341
345 343 341 342 343 343 343 344 345 347 347 353 356 352 351 353 354 354 356 355 355 355 354 354 353 353 352 351 353 354 351 351 353 352 351 351 350 349 349 347 348 347 346 347 349 350 348 343 338 333 329 329 329 330 331 332 333 334 336 337 337 337 339 340 341 341 341 341 342 341 342 343 342 341 342 342 341 340 340 339 341 340 339 340 341 342 342 341 341 341 341 341 342 342 342 342 342
343 340 342 342 339 340 342 345 346 346 346 350 353 350 352 354 353 354 356 355 355 354 354 355 354 354 354 353 352 350 348 348 352 353 352 352 351 350 349 347 346 346 345 347 348 349 351 350 350 348 340 335 333 334 339 341 341 342 342 342 343 343 344 343 343 344 344 343 343 342 342 342 341 340 341 341 341 341 340 340 341 342 341 342 341 342 342 342 342 342 341 341 342 343 343 343 343
341 340 340 338 337 338 342 346 345 344 345 347 349 350 353 352 353 353 355 354 355 355 355 356 354 354 354 353 350 347 348 350 353 353 352 351 349 349 349 348 347 346 345 346 346 345 348 348 350 352 349 345 342 344 347 349 348 346 345 345 345 344 344 344 343 344 343 343 342 341 341 341 341 341 341 341 342 342 341 341 341 343 342 342 341 341 342 342 342 342 341 341 342 342 343 343 343
340 341 340 337 339 341 343 346 346 346 346 345 346 347 352 352 352 353 354 353 354 354 355 356 354 352 352 352 348 347 350 352 352 350 350 350 349 348 349 349 349 348 346 346 345 343 346 348 349 349 350 349 347 347 348 349 348 347 345 345 345 344 344 343 343 343 341 342 342 341 341 341 341 341 341 342 343 343 342 342 342 342 342 341 341 341 340 340 340 341 341 341 342 342 342 342 342
340 340 341 339 342 343 345 347 347 347 346 345 347 345 350 353 351 350 353 355 355 354 354 356 354 354 352 350 349 349 352 353 351 348 350 352 351 351 351 351 351 350 349 348 348 347 348 349 349 349 349 349 347 348 347 346 345 344 344 343 343 343 343 343 344 344 344 344 342 340 342 341 339 341 344 345 345 344 343 343 342 341 341 342 342 342 341 341 340 341 342 341 341 342 342 341 339
341 341 342 342 343 343 344 345 345 346 346 345 346 344 347 351 350 351 354 355 355 354 353 355 356 356 354 351 351 352 354 354 352 351 351 351 353 353 353 353 353 353 352 351 349 349 349 347 348 348 347 346 347 348 347 345 344 343 342 342 344 344 345 346 345 345 345 344 342 339 341 342 341 344 345 346 345 345 344 344 343 343 343 344 344 344 343 343 342 342 342 341 340 340 340 341 340
340 341 340 342 341 342 343 343 345 345 344 345 344 344 344 346 348 351 353 353 353 355 354 354 356 355 354 352 352 352 353 353 352 352 351 352 354 352 352 352 351 351 350 349 348 346 345 344 348 347 346 347 347 347 346 345 346 344 342 343 344 346 346 345 343 343 343 343 342 340 341 343 342 343 344 345 346 344 344 344 344 345 345 345 345 344 343 343 344 344 343 341 339 338 340 342 342
339 340 340 341 341 341 343 344 345 344 344 344 342 343 344 344 346 348 352 352 352 354 353 352 353 353 353 352 351 352 352 352 352 351 352 355 354 351 350 350 349 349 349 349 347 346 345 344 346 346 346 347 347 347 347 347 346 346 344 345 346 346 345 343 343 344 344 344 343 343 342 343 342 342 344 343 343 342 343 344 345 346 346 346 346 346 345 344 345 346 345 343 341 341 343 344 343
341 340 341 341 342 343 343 343 344 344 343 344 342 342 344 346 345 348 351 352 352 353 352 351 352 352 351 352 352 352 352 352 352 351 353 354 353 352 351 351 350 350 350 350 349 348 345 344 346 347 347 348 348 347 347 348 347 347 345 345 347 346 345 346 347 346 346 346 345 346 345 344 344 344 343 342 343 344 345 345 346 347 346 346 346 346 346 346 348 349 347 345 344 343 344 345 344
341 341 341 341 342 342 342 344 346 346 344 342 341 341 344 346 346 348 350 352 353 354 354 353 353 352 351 353 354 354 353 352 352 353 354 352 352 353 352 352 351 349 349 349 349 347 345 346 349 348 347 347 347 344 346 349 348 348 346 346 347 346 346 347 347 347 347 348 347 346 346 345 347 346 346 345 346 347 346 346 347 347 346 346 346 346 346 347 349 349 348 347 346 344 345 344 344
341 341 343 343 342 342 342 346 346 347 345 342 341 343 344 344 346 347 347 349 351 353 354 354 353 353 353 353 354 355 354 353 353 354 354 353 353 353 351 351 351 349 349 349 348 346 346 345 347 347 346 345 343 343 347 348 347 348 347 347 347 347 348 348 347 347 348 347 347 347 347 347 348 347 347 347 347 347 347 347 347 347 347 347 346 346 347 348 348 347 347 347 347 347 347 346 345
339 343 344 345 342 343 345 347 345 344 345 345 344 344 343 344 344 345 346 347 349 350 352 352 353 352 352 353 354 355 355 354 353 352 353 352 352 351 351 349 350 350 346 347 347 345 344 345 348 347 344 345 344 345 347 346 347 348 347 348 348 348 348 348 348 347 347 347 347 347 348 348 348 347 347 347 348 349 347 347 347 347 347 347 347 346 346 347 346 347 347 347 347 348 348 347 347
342 344 343 345 343 345 345 344 344 344 346 346 345 345 343 343 344 344 344 347 349 349 349 349 350 351 352 353 354 355 354 353 352 352 352 352 351 350 352 350 351 350 345 346 347 347 347 347 350 346 342 345 346 347 346 347 348 347 348 348 348 348 348 348 349 348 347 346 347 347 348 348 348 348 348 348 348 349 348 348 348 347 346 347 347 347 346 347 346 347 347 347 347 347 347 347 347
342 342 343 345 344 344 343 344 345 345 346 347 346 345 343 343 343 343 344 346 347 347 347 346 347 350 351 352 352 354 354 353 352 352 353 352 351 351 349 349 351 349 346 348 348 348 350 350 350 347 344 346 347 347 347 348 348 346 348 349 348 348 348 348 348 347 347 348 347 348 348 348 347 348 349 349 348 349 348 348 348 345 346 346 345 345 346 347 347 346 346 347 347 346 346 347 347
341 341 343 343 343 344 344 345 344 346 348 348 348 345 343 345 343 343 345 346 345 345 347 346 348 349 349 350 349 351 354 354 353 352 353 352 350 351 343 343 349 347 346 349 348 349 351 350 350 349 347 347 348 349 348 349 348 347 349 348 349 348 348 348 347 347 348 348 348 348 348 347 347 348 348 348 347 348 347 347 346 346 347 346 345 346 346 346 347 346 345 345 346 346 346 346 346
340 344 344 343 344 342 345 345 344 348 350 351 349 341 341 345 343 343 346 345 345 344 346 347 348 347 348 349 348 350 354 353 354 351 352 353 350 350 341 343 349 346 345 349 348 349 350 349 349 349 349 349 349 349 349 349 349 349 349 349 348 347 347 347 347 347 347 347 347 347 347 346 347 347 346 347 348 347 347 347 346 347 348 345 345 346 345 346 347 346 345 346 346 346 347 347 347
340 341 343 343 339 338 344 346 344 348 347 349 347 338 340 345 343 345 346 345 345 346 346 346 346 346 346 348 348 350 352 352 354 352 351 352 352 351 346 346 349 344 344 349 348 348 349 350 350 349 349 349 348 349 350 350 350 349 348 348 348 347 346 347 347 347 347 347 347 347 347 347 347 346 346 346 346 347 346 346 347 347 346 346 345 346 346 347 348 346 345 346 347 347 348 347 347
345 336 335 341 337 336 343 344 343 346 345 346 345 338 341 345 343 344 345 344 346 346 345 345 345 346 346 348 350 348 349 353 354 354 352 352 353 353 349 347 346 342 344 348 348 348 349 350 349 348 348 347 347 349 349 348 349 348 346 346 346 347 347 347 347 347 347 347 347 347 346 346 346 345 346 345 344 346 346 345 346 346 344 345 346 345 346 347 347 346 345 346 346 347 348 347 347
346 335 330 335 333 332 340 343 343 345 344 344 342 341 343 345 344 342 344 345 346 347 345 344 345 347 346 347 348 347 348 352 353 353 352 351 353 354 350 348 347 342 343 347 347 347 348 347 348 347 346 346 346 345 344 345 346 347 347 347 347 347 347 347 347 347 347 345 344 344 345 346 345 344 345 345 344 346 346 345 344 344 344 344 344 345 345 345 345 344 344 344 345 346 347 347 346
335 332 329 333 334 330 335 340 343 345 345 343 342 343 343 343 344 342 345 346 345 347 345 344 345 345 346 347 348 348 349 351 352 353 352 351 354 353 350 349 347 343 344 345 345 345 347 347 347 347 347 347 345 343 342 342 342 343 344 344 345 345 346 346 345 343 343 342 341 341 342 343 343 344 343 343 343 344 345 345 344 344 344 344 343 344 344 344 343 342 342 342 344 345 346 347 347
325 326 324 327 332 330 334 337 341 345 342 344 344 343 344 342 343 344 344 345 344 346 345 344 345 343 346 347 347 348 350 351 352 353 353 353 354 351 349 350 348 346 347 345 343 344 346 348 348 348 349 348 347 345 344 341 339 340 341 341 343 343 344 345 343 338 335 335 336 337 340 341 340 339 339 339 337 336 338 340 342 342 343 343 343 343 344 343 343 343 342 343 344 345 345 346 346
328 328 325 324 327 327 335 338 339 344 341 344 343 342 345 344 343 344 343 345 345 345 345 345 345 344 347 346 346 348 350 351 352 354 354 352 352 350 347 350 351 348 347 345 343 343 344 348 348 348 349 349 348 347 345 343 340 342 344 345 346 345 346 346 342 336 331 328 329 332 334 334 334 333 332 334 333 332 332 332 335 336 337 338 339 341 343 342 342 343 343 343 344 345 344 345 346
331 330 328 327 326 326 336 339 339 341 339 344 345 342 346 345 344 345 344 345 345 346 345 344 346 345 346 347 346 349 351 353 352 353 354 352 351 350 346 348 352 347 345 345 343 341 342 345 345 346 347 347 345 343 343 342 341 344 345 345 346 346 347 346 341 336 334 332 326 328 329 328 330 329 328 334 335 331 330 330 329 328 328 329 331 335 338 341 343 342 343 343 343 345 345 345 347
332 330 327 326 327 328 335 340 340 339 336 342 348 345 345 345 345 345 345 345 346 347 346 346 347 346 346 347 348 351 353 353 353 352 354 353 351 351 347 347 349 346 343 344 343 341 341 342 342 343 344 342 341 339 339 337 340 345 346 345 345 344 344 345 343 341 341 340 330 324 325 324 326 326 325 333 336 331 327 327 325 325 329 328 327 332 334 339 344 342 343 342 340 343 346 346 345
332 330 327 325 326 330 334 337 340 337 335 341 345 343 343 346 346 345 346 346 344 345 346 347 346 346 346 349 350 353 355 354 352 352 352 351 351 351 349 348 349 346 342 342 342 341 341 341 340 340 339 337 336 335 333 332 336 342 343 344 344 344 345 345 346 344 342 342 336 327 324 321 321 322 322 325 331 329 323 324 326 328 335 335 332 336 337 337 341 342 342 342 341 342 344 345 345
331 330 325 323 328 329 328 333 340 339 337 341 343 341 344 349 347 346 347 346 346 344 347 348 346 346 347 349 351 353 355 354 352 353 352 351 349 349 349 348 348 346 344 343 341 341 341 340 338 337 336 334 332 332 332 333 336 338 340 342 343 344 343 342 343 343 340 340 339 332 329 326 321 322 321 320 325 325 322 325 327 329 335 337 336 338 340 339 341 342 340 340 342 341 341 341 343
331 332 327 326 329 328 327 333 340 338 337 339 339 334 340 350 349 349 348 345 347 346 347 350 346 347 347 349 351 352 356 355 354 355 352 351 349 347 349 350 348 344 342 343 343 341 340 339 339 340 338 335 335 336 336 338 341 342 343 343 343 342 338 335 335 336 335 335 336 333 332 330 327 329 329 326 324 323 325 327 326 329 333 334 336 337 339 340 340 341 339 337 340 342 341 339 342
327 332 331 331 331 330 331 334 334 333 332 337 338 327 331 348 349 349 350 346 348 347 348 351 348 349 348 350 352 352 355 355 354 356 352 351 351 349 351 351 349 343 339 342 342 342 342 341 341 340 338 335 335 337 337 339 341 343 343 343 343 342 340 339 338 336 334 334 336 336 334 331 333 337 338 336 331 326 330 330 326 332 336 336 336 338 339 339 339 340 339 338 339 341 341 340 342
324 329 333 332 334 331 331 330 328 327 329 338 337 328 330 345 348 349 351 347 349 347 349 352 350 349 349 351 352 350 355 356 355 356 352 350 351 351 351 351 349 346 343 343 341 341 345 345 343 339 334 334 334 334 335 337 338 338 340 340 340 342 342 341 341 339 338 338 338 339 339 335 334 338 340 339 337 334 336 336 330 334 337 337 338 338 338 339 339 339 339 339 340 339 338 339 341
324 330 333 333 334 331 332 330 327 327 330 334 336 332 332 338 346 349 349 348 350 349 350 352 350 349 350 351 351 351 355 356 353 353 352 349 350 352 352 351 350 347 345 344 342 340 340 340 338 335 333 334 334 335 336 336 336 336 336 337 338 340 341 340 340 339 337 337 337 337 338 335 331 336 337 336 338 336 336 337 335 335 336 336 338 338 338 338 338 339 338 339 340 337 336 339 340
329 333 334 333 334 333 333 331 327 329 328 324 330 332 331 332 341 348 351 347 348 351 351 351 350 348 351 351 350 354 356 355 351 350 351 350 350 352 353 352 350 347 343 342 340 336 332 331 331 332 334 336 336 337 337 336 336 335 334 333 333 334 337 337 337 338 336 334 336 338 336 331 330 334 335 335 336 336 335 335 336 335 335 336 336 336 336 336 336 337 337 338 339 337 336 338 339
332 334 334 334 334 333 333 330 327 327 325 321 325 327 327 332 341 342 346 345 345 350 350 350 350 346 350 350 352 355 356 353 348 349 351 351 350 352 353 353 349 345 341 340 339 335 329 330 331 333 336 337 338 338 338 338 336 334 333 333 330 328 329 330 332 336 335 333 335 337 333 329 331 334 335 335 335 335 334 335 335 335 335 335 333 333 332 332 332 333 333 335 337 337 337 338 340
333 332 333 332 332 333 333 333 330 326 324 322 327 325 326 336 343 340 341 346 345 347 349 349 347 347 349 350 352 354 353 350 348 349 352 351 351 351 352 352 347 343 341 342 343 339 333 332 333 336 337 338 339 338 338 337 334 334 333 331 329 326 325 329 335 335 330 329 332 331 329 329 332 334 334 334 334 333 333 334 335 334 334 333 331 332 332 331 331 331 333 335 336 338 338 338 339
333 332 331 327 326 330 327 329 332 327 323 324 328 327 324 330 339 341 342 347 344 346 350 349 348 350 350 351 352 351 351 350 349 351 351 349 350 349 348 349 346 342 343 343 344 342 338 337 338 340 341 341 340 338 337 336 334 333 332 330 327 324 323 330 338 335 326 329 331 328 329 331 330 332 333 332 332 331 332 333 333 332 333 332 332 331 330 330 332 332 334 335 335 337 338 337 338
332 331 328 320 319 323 323 323 326 324 323 325 327 328 327 329 337 341 345 345 341 343 347 349 353 353 351 352 349 349 350 351 351 351 349 347 347 347 346 346 344 343 344 343 343 344 342 341 342 342 342 341 340 338 337 336 334 333 331 328 323 321 324 331 337 333 327 331 333 331 332 332 330 331 332 331 330 331 332 333 332 332 333 334 332 330 328 328 329 332 334 334 334 337 337 336 336
331 327 323 319 318 320 321 323 323 321 321 325 326 326 327 331 338 343 345 343 344 345 346 351 353 351 351 351 349 349 350 351 350 350 348 347 347 347 346 345 344 344 343 343 343 344 344 343 343 342 341 339 338 336 336 335 334 332 328 324 320 324 330 333 335 332 329 332 332 331 332 332 330 331 330 330 331 331 332 332 332 333 333 332 330 328 326 325 326 329 333 333 333 335 335 334 335
331 330 327 322 319 320 321 320 319 320 320 321 324 324 325 332 342 347 346 345 347 349 349 352 349 350 353 351 351 349 348 350 350 349 348 347 347 347 345 345 344 343 343 343 343 344 344 343 342 340 339 338 336 336 335 333 332 328 323 323 322 326 333 333 332 331 331 332 331 330 331 330 330 329 329 330 331 331 331 331 332 332 332 330 328 325 324 324 323 326 330 332 333 333 332 333 335
329 333 329 322 323 324 321 319 320 319 318 318 321 327 334 342 348 349 348 346 347 347 351 352 351 353 354 351 350 347 346 349 350 349 348 347 346 346 345 344 343 343 343 343 343 344 343 342 341 340 338 337 336 335 334 330 329 325 322 326 327 326 330 332 330 330 330 331 329 329 329 328 328 328 329 330 330 331 332 331 331 331 330 328 326 324 322 322 323 324 326 331 332 331 330 332 334
327 328 324 326 331 329 319 319 321 318 318 319 320 330 340 343 345 350 349 347 346 347 349 352 352 355 355 353 350 346 347 349 347 348 347 346 344 344 344 343 343 343 342 343 343 343 342 340 340 339 338 337 335 335 332 326 326 325 324 328 329 327 328 329 328 328 330 329 328 328 327 327 328 328 328 330 330 331 331 330 329 329 329 327 325 324 321 321 324 324 324 328 330 328 327 330 332
326 323 326 330 331 330 323 319 319 317 319 318 319 328 332 331 338 350 352 352 349 347 349 349 350 354 355 353 350 347 348 349 348 348 347 345 344 344 343 341 341 342 341 342 343 342 341 340 339 338 336 335 333 332 330 326 327 328 328 330 330 327 327 327 326 327 328 328 328 327 325 325 328 328 328 329 330 330 330 329 328 327 327 326 324 323 322 323 326 325 324 326 327 325 324 328 330
330 326 331 330 321 321 323 319 318 318 318 317 320 329 331 328 336 348 351 353 352 350 350 349 349 355 354 350 347 345 346 348 348 348 346 345 344 343 342 340 341 342 341 341 342 342 340 339 337 335 333 332 331 330 329 329 330 331 330 330 329 326 326 327 327 326 326 327 327 326 324 325 328 328 327 329 329 328 328 328 327 326 326 324 322 322 323 324 324 324 324 325 325 322 323 327 329
331 330 330 329 324 322 322 321 321 318 317 317 319 328 335 336 341 347 349 352 355 353 352 352 352 355 352 347 344 343 344 348 349 348 347 345 343 342 342 341 341 342 341 341 341 341 340 338 335 333 332 333 333 332 330 330 331 331 329 329 328 325 325 326 327 326 325 325 326 326 326 327 328 327 327 328 327 327 326 326 326 326 325 323 321 321 322 322 322 322 323 324 323 321 322 326 326
328 325 325 326 325 325 323 322 321 318 317 317 315 326 339 347 350 352 349 352 355 354 354 354 354 354 350 344 343 344 347 349 349 348 347 344 342 343 342 340 341 341 341 341 339 338 338 338 337 334 333 333 333 332 329 328 330 330 328 327 326 325 324 325 325 325 325 325 325 326 326 327 327 326 327 326 326 326 324 322 324 325 323 321 321 320 320 320 321 321 321 323 322 320 321 323 324
328 325 324 325 324 323 319 319 322 320 319 317 317 328 341 351 353 353 352 354 354 354 354 352 352 354 349 344 345 346 348 348 348 348 345 343 343 343 341 340 340 341 341 340 338 338 337 337 336 334 333 332 331 331 329 327 327 327 326 325 325 324 324 323 324 324 324 324 325 325 326 326 326 325 326 325 325 324 322 320 322 323 321 320 319 319 318 319 320 320 320 321 322 321 320 322 323
Wind_Speed
5 4 4 3 2 2 2 2 2 1 1 1 1 2 1 2 3 4 5 3 2 4 7 9 13 18 13 11 14 18 19 15 8 4 7 12 20 20 18 22 21 17 18 20 18 16 14 14 14 14 14 14 14 13 13 11 11 11 11 11 11 12 12 12 13 13 13 12 12 11 11 11 11 11 11 11 11 12 12 12 12 12 13 13 13 14 14 14 14 14 13 12 11 9 8 7 6
6 5 3 2 2 2 2 2 1 0 1 2 2 3 3 2 5 6 6 6 2 1 9 15 17 19 17 17 17 18 20 19 14 12 16 19 21 19 20 21 20 18 16 17 17 16 15 15 15 14 14 13 13 13 12 11 10 10 10 10 10 10 11 11 11 11 11 11 10 9 9 8 8 8 8 8 8 9 9 9 10 10 10 10 11 11 11 11 11 11 11 11 11 10 9 8 7
6 5 5 3 3 3 3 2 1 0 1 3 2 2 3 4 7 7 6 8 6 8 13 14 16 16 14 17 18 14 11 16 16 14 19 20 21 20 20 19 19 16 11 15 15 16 17 16 15 14 14 13 12 12 11 11 10 10 9 9 9 9 9 9 9 9 9 8 8 8 7 7 6 5 5 5 5 5 5 6 6 7 7 7 8 8 8 9 9 9 9 9 9 9 9 8 7
7 6 5 3 2 2 3 1 2 3 3 3 2 1 4 7 8 8 7 12 15 17 14 9 8 12 15 12 9 9 8 15 15 12 15 16 19 20 20 19 17 14 13 16 14 15 18 16 16 14 14 13 12 12 11 10 10 10 9 8 8 8 8 8 8 7 7 6 6 6 5 5 4 4 3 2 1 2 2 2 3 3 4 4 4 5 5 6 6 6 6 6 6 7 7 7 7
7 6 6 5 2 2 2 1 3 5 6 4 3 3 6 8 7 8 8 13 16 15 11 3 2 8 14 11 5 4 5 11 13 14 14 14 19 20 20 18 16 16 16 17 13 14 16 16 15 14 14 13 12 11 10 10 9 9 8 7 7 7 7 7 6 6 6 5 5 4 4 3 3 3 2 2 2 1 1 1 2 2 2 2 2 2 3 3 4 4 4 4 4 4 5 5 5
5 4 4 7 7 7 4 1 3 7 8 7 5 5 8 8 7 10 9 12 14 12 11 5 3 7 9 10 9 6 5 7 12 15 14 16 19 19 19 17 16 16 16 17 13 12 15 14 14 14 13 12 12 11 10 9 8 8 8 7 7 6 6 6 5 5 4 4 4 3 3 3 3 3 3 3 3 4 4 4 4 4 4 4 3 3 3 4 4 4 4 3 3 3 3 3 3
4 3 2 6 7 5 2 3 6 7 7 8 7 6 9 8 6 9 8 9 11 10 9 6 4 8 7 5 8 9 11 12 14 15 13 17 18 17 17 16 17 16 17 17 14 12 14 13 13 13 13 12 11 11 10 9 8 8 8 7 6 6 6 5 5 4 4 3 3 3 3 3 3 3 4 4 4 5 5 5 5 5 5 5 5 5 5 5 5 5 6 5 5 4 4 3 2
2 6 6 4 2 2 0 5 7 7 5 7 8 8 12 11 10 11 9 6 6 6 6 5 3 6 6 5 7 7 13 16 17 18 16 17 16 15 15 15 17 16 16 15 14 12 13 13 12 12 12 12 11 10 10 9 8 7 7 7 6 5 5 5 4 4 3 3 3 3 4 4 4 4 5 5 5 6 6 6 6 6 6 6 6 6 6 6 6 7 7 7 7 7 6 5 4
8 11 7 5 3 0 3 6 7 8 6 8 8 10 14 15 15 12 7 5 5 6 6 5 3 5 8 11 10 7 13 17 18 19 16 16 15 14 14 14 15 15 15 14 11 11 11 11 12 11 11 11 11 10 9 9 8 7 7 6 6 5 5 4 4 3 3 3 3 4 4 4 5 5 6 6 6 7 7 7 7 8 8 8 8 8 8 9 8 8 9 9 9 9 9 8 7
9 11 7 5 3 4 6 6 7 8 9 8 7 11 14 15 17 12 7 6 5 6 8 10 10 10 10 10 8 9 16 16 15 17 15 15 14 13 13 13 14 15 15 14 9 10 10 10 10 10 10 11 11 10 9 9 8 7 7 6 6 6 5 5 5 5 5 5 5 5 6 6 6 7 7 7 7 7 8 8 8 9 10 9 9 9 10 10 10 11 11 10 10 10 10 10 10
6 9 9 4 5 7 7 6 7 8 10 8 8 16 19 22 19 10 9 9 6 6 6 7 11 13 10 5 5 11 15 13 13 15 15 13 12 13 13 13 13 14 12 10 7 9 9 9 9 10 10 10 9 9 8 8 7 7 7 7 7 7 6 7 7 7 7 7 7 7 7 8 8 9 9 9 9 9 10 9 10 10 10 10 10 11 11 11 12 12 12 12 12 11 12 11 11
6 4 4 2 7 7 7 7 6 8 11 10 10 14 20 25 16 6 9 9 7 8 7 5 8 11 8 5 6 12 14 13 14 13 12 11 11 11 12 12 12 12 11 8 6 7 8 8 9 9 9 9 8 7 6 6 6 6 7 7 7 7 7 7 8 8 9 9 9 9 9 10 11 11 11 11 11 11 11 11 11 11 10 11 11 12 13 12 12 12 13 13 12 12 12 12 12
6 5 2 3 7 7 8 8 7 8 10 10 10 12 21 22 11 6 8 8 9 8 7 7 8 9 7 5 7 11 14 15 15 11 8 8 9 10 10 10 10 10 11 10 5 4 7 8 8 8 8 8 7 5 4 4 4 5 5 6 7 7 8 8 9 9 10 10 11 11 11 11 12 12 13 12 12 11 11 12 12 12 12 13 13 13 14 13 13 13 13 13 12 12 11 12 12
7 7 5 5 8 8 9 7 8 9 8 10 9 13 21 17 11 10 9 9 11 9 7 7 9 10 8 6 5 8 13 14 14 11 6 6 8 8 8 9 10 10 10 10 8 6 5 5 7 7 7 6 5 4 3 3 3 3 4 5 6 7 8 8 9 9 10 11 11 12 11 12 12 12 12 12 12 12 13 14 15 15 15 15 14 14 15 15 15 14 14 13 13 12 12 12 12
8 7 7 6 7 8 9 8 10 10 8 10 7 13 22 17 14 14 11 11 9 8 7 7 7 6 5 5 4 8 12 13 13 10 5 6 7 6 7 8 9 9 8 9 9 10 5 3 6 5 5 4 2 2 1 1 2 2 4 4 6 7 8 9 9 10 10 11 13 14 14 14 14 13 14 14 14 14 14 15 16 16 16 16 16 16 17 16 16 15 14 14 13 12 12 13 13
9 7 7 6 9 8 9 9 10 9 8 11 8 13 20 16 17 16 12 14 12 10 10 9 8 7 9 10 10 12 12 12 10 7 5 6 5 5 6 6 7 7 7 8 8 9 7 6 7 3 2 2 2 1 1 1 2 3 4 6 7 8 8 10 11 11 12 12 14 14 15 15 15 15 15 15 15 15 15 16 17 17 17 17 18 18 18 17 16 15 15 15 15 14 13 14 14
8 9 7 6 9 8 10 10 9 8 8 12 12 15 18 12 15 16 13 16 17 16 15 14 12 14 16 16 14 14 13 11 8 5 4 4 5 5 5 5 6 6 5 5 5 5 6 7 6 2 2 2 3 2 2 5 5 5 7 8 9 10 10 11 12 13 14 14 15 16 16 16 16 16 16 17 16 16 16 17 18 18 18 18 19 19 19 18 17 16 16 15 15 14 14 14 15
9 8 7 7 9 8 9 9 8 9 8 11 13 17 18 12 8 12 12 15 18 18 18 16 15 16 16 15 14 14 12 11 8 6 5 5 6 6 6 6 5 5 4 4 5 2 2 7 8 6 5 3 3 3 6 8 8 8 10 11 12 12 13 14 15 15 16 16 16 16 16 16 16 16 16 17 17 15 15 16 17 18 18 18 19 19 19 18 19 18 16 15 15 14 14 15 16
8 5 6 7 8 9 9 8 8 9 9 11 13 17 19 17 11 10 12 12 14 15 14 16 16 13 13 13 13 13 11 9 10 10 8 7 6 5 3 3 2 1 1 3 4 5 6 6 10 8 8 5 4 6 8 9 10 12 13 14 14 15 16 17 16 15 15 16 15 15 14 14 15 16 15 16 15 14 15 16 17 17 17 17 18 18 19 18 18 19 17 16 15 15 15 16 16
8 6 6 7 8 10 11 11 11 10 10 10 12 16 18 20 17 14 14 12 12 10 9 11 13 11 11 13 12 12 11 10 10 8 6 6 3 3 1 4 2 6 7 5 5 6 10 6 3 6 7 5 6 8 10 9 10 11 12 13 13 14 15 15 15 15 15 17 17 17 17 15 15 15 15 15 14 14 15 16 17 16 17 18 19 20 21 21 19 19 19 17 16 16 16 16 16
9 8 6 9 9 10 12 12 10 11 11 11 14 16 17 18 18 17 14 11 8 7 6 8 10 12 13 13 13 12 11 10 9 7 4 4 2 1 3 6 4 5 7 7 6 2 3 5 1 3 3 3 5 8 8 8 8 8 9 12 11 12 14 17 18 18 18 19 19 19 18 17 17 16 15 15 14 15 17 17 18 18 19 20 22 23 23 23 22 21 19 19 19 18 17 16 15
7 9 9 10 10 10 12 10 9 12 11 12 15 15 15 18 21 21 16 8 4 7 9 10 12 13 13 12 12 12 11 9 8 7 5 4 3 4 4 3 2 1 1 3 5 2 0 2 1 2 2 3 3 4 4 5 6 7 8 11 11 11 15 17 18 18 18 19 19 18 18 17 17 16 15 15 16 17 18 19 19 19 20 20 21 22 22 23 23 22 20 19 19 17 16 15 15
5 8 11 11 12 11 11 11 12 13 11 12 15 14 15 17 19 22 21 13 8 11 12 11 11 11 12 10 10 9 8 8 7 8 6 4 4 3 3 1 2 1 2 1 3 3 2 2 2 4 3 2 1 1 2 3 5 6 6 7 9 11 13 15 15 15 15 16 17 16 15 14 14 14 13 15 16 17 18 19 17 17 18 18 18 19 19 20 19 21 21 19 18 18 17 15 14
6 6 10 11 13 13 13 13 13 11 11 14 15 14 15 15 15 17 21 20 17 15 11 10 9 8 8 8 7 7 7 7 7 8 6 5 4 4 4 4 4 4 4 4 4 4 4 3 4 5 5 3 2 3 3 3 3 3 4 6 8 9 10 11 12 12 12 12 13 13 12 11 10 11 11 13 14 15 17 16 15 14 15 15 15 15 15 16 15 18 19 18 18 19 20 19 19
8 6 8 9 13 14 12 13 11 10 11 13 13 13 14 16 16 16 17 18 19 17 14 15 14 10 8 7 6 7 7 6 6 7 5 5 5 3 5 6 6 6 8 7 5 6 6 6 6 5 4 3 2 3 2 2 2 2 3 5 5 5 5 6 6 7 7 7 10 10 9 9 9 10 10 11 12 13 13 12 13 12 13 15 14 13 12 13 13 13 14 15 15 16 18 19 21
7 5 8 9 11 10 10 12 13 11 9 7 8 11 11 12 13 13 14 13 13 14 15 16 15 13 11 9 7 6 6 5 5 6 4 3 4 8 9 8 8 7 8 7 5 5 6 8 7 5 4 3 3 3 3 3 4 4 3 2 3 3 2 3 4 4 4 5 7 7 8 8 8 9 9 9 10 11 11 11 12 12 13 13 13 13 11 12 13 12 12 13 13 14 14 14 15
6 7 8 7 8 8 8 12 12 11 7 4 5 7 7 8 8 8 9 9 9 10 10 11 10 9 8 7 6 5 6 5 6 7 6 5 9 15 13 10 11 10 8 6 6 6 7 8 7 6 5 4 4 3 4 4 5 3 3 3 4 4 4 4 5 5 4 4 5 6 6 6 6 7 7 8 9 10 11 11 11 12 11 12 12 12 11 12 13 12 11 11 12 13 13 12 12
7 6 6 6 7 8 7 9 11 8 6 4 3 5 8 10 9 8 8 7 7 8 9 9 8 6 6 6 5 5 5 6 7 7 8 10 15 20 15 11 12 12 9 8 8 7 7 7 7 7 6 5 5 4 5 5 5 4 4 4 4 5 5 5 5 6 5 4 5 6 6 6 6 6 6 7 8 9 10 10 10 10 11 11 11 11 12 13 13 13 12 11 12 13 13 12 12
7 1 2 7 4 2 4 7 9 7 6 5 4 4 8 9 9 9 7 7 8 7 7 7 6 5 4 5 5 5 5 6 8 9 11 12 16 20 15 11 12 10 9 9 8 7 7 6 7 8 6 5 5 4 5 5 4 5 5 5 5 5 4 5 5 5 6 7 7 8 8 8 8 7 7 7 8 9 9 10 11 12 12 12 12 13 13 12 13 13 13 12 11 12 13 12 12
6 2 0 5 2 3 5 7 8 9 8 7 5 2 6 7 7 8 6 6 8 5 4 5 4 4 4 5 4 4 5 6 9 10 11 13 14 14 12 13 12 9 8 7 6 7 8 7 6 7 5 5 4 4 5 6 6 6 6 6 6 6 5 7 7 7 9 10 10 10 10 11 11 10 10 9 9 10 10 11 12 13 13 13 13 14 13 12 12 13 13 13 12 12 12 12 11
3 5 1 0 0 4 7 10 9 9 10 10 4 2 5 6 6 8 7 6 5 3 4 6 4 4 4 3 1 3 5 6 9 10 11 12 11 11 13 14 12 9 8 7 6 7 8 8 7 6 5 4 5 6 6 7 8 8 8 8 8 9 9 10 9 10 12 11 11 12 11 12 12 12 12 11 11 11 12 12 12 13 13 12 13 14 13 13 13 14 14 14 13 12 12 13 12
3 2 4 6 4 5 9 11 11 9 11 12 4 4 5 6 8 9 7 7 3 3 4 6 5 4 4 3 4 3 5 7 8 9 12 10 8 12 14 12 11 9 10 9 7 7 8 8 7 7 7 6 7 8 8 8 9 10 10 10 10 11 10 10 10 11 12 12 12 11 11 12 13 13 13 13 14 12 13 13 13 14 14 13 14 13 13 14 14 14 14 15 15 14 13 14 13
5 5 5 10 9 4 8 11 11 12 10 10 6 2 6 5 10 10 6 8 7 9 4 6 5 4 5 5 5 5 5 6 8 9 11 9 9 13 13 11 10 9 9 9 8 8 8 7 7 7 8 9 10 10 10 11 11 10 10 11 11 11 10 10 10 10 10 11 11 11 11 12 13 14 14 15 15 14 13 13 14 15 15 14 14 13 13 14 15 14 14 15 15 15 14 14 14
7 7 3 11 12 4 7 10 11 13 9 7 4 3 7 6 10 12 8 8 7 7 5 6 4 2 2 4 4 5 4 3 7 9 10 9 10 13 12 11 10 8 9 9 8 8 7 6 7 8 8 10 10 11 12 13 13 12 12 12 12 11 11 10 10 10 9 10 10 10 11 12 12 12 13 14 14 14 14 14 15 15 15 15 14 15 15 14 15 15 15 14 14 15 14 13 14
4 3 5 4 9 5 5 7 10 14 9 4 5 5 8 7 9 11 8 9 5 3 3 5 6 3 1 4 3 3 3 4 7 8 9 9 11 12 10 10 11 9 10 9 9 7 6 6 7 7 8 9 9 9 11 13 14 14 14 14 13 12 13 11 10 10 10 9 9 9 9 10 11 11 12 12 12 13 13 13 14 14 14 15 15 15 15 15 16 16 16 16 15 15 15 14 15
9 5 6 5 0 2 6 7 10 12 7 7 9 5 8 9 9 9 7 9 7 5 4 4 5 4 2 2 1 1 4 6 6 7 9 9 11 11 7 10 12 11 10 8 8 7 7 7 7 8 8 8 8 8 10 11 12 14 15 15 13 13 12 10 9 10 10 10 9 9 9 9 10 10 10 10 11 11 12 11 11 12 12 13 13 14 14 16 18 18 17 17 17 16 16 15 14
12 9 8 5 4 2 7 8 10 8 3 9 13 9 9 10 10 11 10 10 7 7 7 5 5 4 2 0 2 0 3 5 5 6 8 9 12 10 7 11 14 12 10 8 7 7 9 9 9 9 9 9 9 10 10 10 11 13 14 12 11 11 10 9 10 11 12 12 12 11 11 11 10 11 11 10 11 11 11 11 10 11 10 10 11 12 13 15 17 18 18 17 16 16 17 15 13
12 10 7 5 4 1 7 8 9 6 2 8 14 11 9 10 10 12 12 10 9 9 8 7 7 6 6 4 4 2 3 4 5 7 8 9 12 11 8 12 14 12 10 9 8 8 9 11 12 12 11 11 11 12 11 9 10 11 10 9 8 9 9 10 11 13 13 13 14 13 13 13 12 12 12 12 11 12 12 12 12 12 11 11 11 11 12 12 13 16 17 17 16 15 16 16 14
10 9 7 5 3 3 7 6 5 4 2 5 9 7 8 12 11 12 13 11 10 7 6 8 8 9 10 8 6 4 5 5 5 7 9 9 12 12 10 11 13 12 10 9 10 10 11 11 13 13 13 13 12 12 11 10 10 10 10 10 9 9 10 11 11 12 12 12 14 14 14 14 14 13 13 13 12 12 13 13 13 12 13 13 13 13 14 13 13 14 14 15 16 16 14 16 17
9 7 8 6 1 3 1 4 5 5 3 3 5 5 7 11 10 10 11 12 10 5 6 6 6 9 9 8 8 6 6 6 6 7 9 10 10 10 10 10 11 12 12 12 11 10 12 12 13 13 13 13 13 12 11 10 11 11 11 11 11 10 8 7 8 9 11 12 13 15 16 16 16 14 15 15 14 14 15 14 14 13 12 13 13 14 16 17 16 16 15 13 14 17 16 15 16
8 6 9 7 4 4 1 5 6 6 5 5 5 5 5 10 10 10 9 10 10 8 6 4 4 8 9 9 10 8 7 6 7 8 10 11 11 9 11 12 10 9 10 14 14 12 11 11 12 13 12 12 11 10 10 10 11 12 11 11 10 8 8 8 9 10 12 12 13 14 16 16 17 16 16 18 17 17 17 16 16 15 14 14 13 14 17 17 15 16 17 14 12 15 16 16 16
7 6 8 7 9 11 5 2 4 4 5 6 6 5 3 9 11 10 8 9 9 9 9 7 4 7 10 11 11 10 9 8 7 8 9 11 13 12 13 14 12 9 7 9 13 14 13 11 11 11 12 12 11 10 10 10 11 11 9 9 9 9 11 12 13 13 14 14 14 15 16 16 16 16 17 19 19 18 18 18 17 16 16 16 14 14 15 15 14 16 18 15 13 14 14 15 16
6 4 9 9 7 12 10 7 6 3 3 6 8 6 1 4 6 8 10 10 11 9 10 11 8 7 10 11 11 11 10 9 7 8 10 12 13 14 15 14 13 13 11 9 10 12 13 12 11 11 12 12 12 11 10 9 10 9 8 8 9 10 11 11 11 12 13 13 13 14 16 16 15 16 17 18 20 19 18 19 18 15 15 16 14 13 14 13 14 16 17 15 15 14 13 13 15
5 1 5 10 10 11 11 10 7 5 4 4 8 7 2 2 4 9 11 10 11 11 11 12 11 11 11 11 10 10 10 10 9 9 10 12 12 13 15 14 15 18 18 15 12 11 11 12 12 13 13 13 12 10 9 9 9 9 9 9 10 10 11 11 11 11 11 12 12 12 13 14 13 13 14 15 17 17 16 18 17 15 15 15 14 13 13 13 14 15 15 14 15 14 13 12 14
9 7 5 6 11 13 11 10 8 8 7 1 4 8 0 5 5 9 10 9 11 12 12 13 14 16 14 13 11 11 12 10 9 9 9 12 13 13 13 15 18 21 20 18 16 14 13 13 13 13 13 12 11 10 9 9 9 9 9 10 10 10 10 9 9 11 13 13 13 13 13 14 12 12 12 13 14 15 15 16 16 16 15 14 14 13 12 11 12 14 13 13 14 13 12 11 12
11 7 5 7 10 12 11 9 8 7 7 4 5 9 4 4 4 7 8 9 10 11 12 13 17 19 16 14 12 11 11 6 4 6 8 12 13 13 13 16 19 20 20 19 18 17 16 14 13 11 11 10 10 9 9 9 9 9 10 11 11 11 10 10 10 11 13 14 14 14 15 15 14 14 14 14 14 14 15 15 15 16 15 14 13 13 13 12 12 13 13 13 12 12 11 10 11
13 8 5 9 10 10 10 6 6 7 6 6 10 12 7 0 3 6 7 9 9 8 11 12 16 17 15 13 11 12 9 6 6 7 9 12 12 14 15 16 18 19 19 18 17 16 16 14 11 10 10 9 9 9 9 10 9 10 10 11 11 11 11 11 12 12 13 14 14 14 15 16 15 15 15 15 15 15 16 16 15 14 13 13 13 13 14 14 14 14 14 13 12 11 11 9 10
11 8 5 8 7 7 7 2 5 4 5 7 12 16 8 0 4 8 8 9 8 6 11 14 13 13 14 12 16 13 13 14 15 14 11 11 12 13 15 16 18 18 17 17 16 15 14 13 11 11 10 8 8 9 9 9 8 9 10 10 11 11 10 10 11 13 13 14 15 15 15 15 14 15 14 14 16 16 16 16 16 14 13 13 13 14 14 14 14 14 13 13 12 12 11 10 10
7 7 7 7 7 6 5 2 2 4 6 8 12 14 5 5 5 8 9 8 6 5 10 15 14 13 13 18 19 14 18 17 17 14 10 10 11 11 13 16 18 17 17 17 15 15 14 12 10 10 9 8 7 8 8 8 8 9 10 11 11 11 10 10 10 12 13 13 14 14 14 14 14 15 14 15 17 16 15 15 17 15 14 13 13 14 14 14 14 14 13 14 13 13 12 11 11
7 7 7 7 7 6 4 4 6 6 7 9 11 9 1 4 5 6 7 5 2 1 9 16 15 14 15 23 18 15 16 16 15 13 9 9 12 13 13 16 17 17 16 16 15 14 14 12 9 8 8 7 6 8 8 8 8 10 11 12 11 10 11 11 10 11 12 12 12 12 12 13 13 13 14 15 16 15 13 13 14 14 13 14 15 16 16 15 14 13 13 14 14 14 12 11 12
9 8 7 8 7 6 6 6 6 7 9 9 9 6 1 3 2 4 6 7 7 8 13 15 11 13 21 23 17 13 15 17 14 13 9 11 14 17 17 16 16 17 15 14 13 13 12 11 8 7 7 6 6 7 8 9 11 12 12 13 11 10 10 9 9 10 11 11 11 11 11 12 12 12 13 14 14 15 14 12 13 15 15 16 18 18 18 17 15 13 12 14 15 15 13 12 12
10 9 8 8 6 5 6 8 10 11 10 7 4 3 6 7 6 6 6 7 9 9 11 13 11 16 22 20 15 13 16 17 14 11 13 14 14 18 18 15 15 15 14 14 12 11 10 9 7 6 6 6 6 7 8 10 12 12 12 12 11 10 9 9 9 9 11 12 11 11 10 11 13 12 11 11 13 14 13 12 13 15 17 18 18 19 18 16 15 13 11 15 17 16 13 13 13
8 10 9 6 6 7 7 9 11 11 8 6 3 2 6 6 5 6 6 6 8 7 8 11 11 16 19 17 13 12 12 14 13 12 13 14 15 18 16 15 15 14 14 13 11 10 9 7 6 5 6 5 5 6 8 10 11 11 11 11 12 11 10 10 10 9 10 11 11 11 9 10 12 11 11 11 11 12 13 13 13 13 16 18 18 18 16 13 13 13 10 13 18 16 12 14 15
8 9 7 5 7 9 7 6 7 7 6 7 4 4 6 2 1 4 5 6 7 7 7 8 9 13 17 15 12 12 14 12 11 12 12 13 16 17 15 15 14 14 14 12 10 9 7 6 4 5 5 7 8 7 8 11 12 11 12 11 11 12 12 12 12 10 10 11 12 11 9 10 11 11 11 11 10 10 12 14 14 13 15 18 18 17 16 13 13 12 10 13 18 16 10 13 15
13 11 9 7 7 6 5 4 5 6 7 8 2 8 5 0 2 5 5 6 7 7 7 8 10 12 14 15 13 15 14 11 11 12 12 15 17 15 13 15 14 12 12 11 10 9 6 4 5 6 7 11 13 9 8 11 11 10 12 11 11 12 12 13 13 11 11 11 11 11 10 11 13 12 11 11 12 11 12 14 15 14 15 17 17 15 16 16 14 11 12 14 18 18 12 13 15
14 13 11 9 8 7 5 4 5 7 8 8 2 7 5 1 3 2 3 6 9 10 8 8 11 12 13 18 16 13 13 13 14 14 13 16 16 13 13 16 15 13 11 10 9 7 5 5 8 10 10 10 10 6 7 10 9 10 11 10 12 14 13 12 13 12 11 12 12 10 10 11 12 13 13 13 14 14 12 12 14 15 14 15 17 15 15 17 16 12 12 14 17 18 13 14 15
10 11 9 9 7 7 7 6 7 8 7 8 6 0 3 3 5 5 2 5 8 9 7 6 10 12 18 21 14 16 17 16 14 13 14 17 16 13 15 16 15 12 10 9 7 4 5 6 7 8 9 7 5 6 10 9 8 9 10 10 12 14 13 12 12 10 10 11 12 12 11 11 12 14 15 13 13 14 14 13 13 14 13 14 16 14 13 14 14 12 11 13 17 19 15 15 15
9 8 9 10 9 8 8 8 8 8 8 7 5 1 2 1 2 4 6 6 6 7 6 6 7 13 22 19 14 16 17 16 14 12 15 18 16 15 16 16 14 12 9 7 5 4 7 8 6 5 7 5 4 7 11 9 9 9 10 10 12 12 11 11 11 10 9 10 11 12 12 12 12 12 13 13 12 14 15 14 14 14 15 16 15 12 11 10 9 10 9 11 15 18 16 15 15
Wind_Direction
151 131 113 116 151 231 254 257 226 193 194 78 2 83 61 60 91 72 60 64 69 34 44 48 45 44 51 70 72 64 40 28 37 55 101 127 141 143 145 146 145 145 156 162 161 162 165 163 157 152 148 144 141 137 131 131 131 132 132 130 131 128 125 126 125 124 123 120 118 115 110 105 102 100 98 97 94 91 87 82 76 72 69 68 67 67 68 69 68 68 67 64 61 58 55 50 42
135 126 135 194 235 267 5 342 297 161 152 65 3 35 60 71 77 70 53 65 100 86 65 53 46 45 63 71 58 60 41 32 51 78 110 130 136 141 146 146 143 144 154 156 161 167 164 162 158 153 150 148 145 141 137 137 139 140 139 138 137 133 130 130 130 130 130 129 128 124 119 112 106 103 99 99 96 91 89 85 81 74 68 65 61 60 62 64 66 66 65 65 63 60 57 52 42
132 140 151 214 277 314 328 323 307 53 106 70 40 12 56 68 68 70 49 51 61 60 56 44 41 33 50 62 47 57 45 42 60 87 113 129 134 139 148 145 145 148 146 143 161 172 164 161 157 155 152 152 149 146 146 146 146 146 145 143 144 140 137 135 134 135 136 138 138 136 132 128 123 116 108 103 96 91 87 85 84 81 73 66 60 56 54 54 58 61 63 62 60 59 56 54 48
141 170 172 212 273 277 269 260 294 5 61 72 77 59 61 66 69 72 45 41 50 57 53 26 36 39 50 62 46 62 54 54 72 100 111 129 133 137 145 143 144 142 138 143 166 174 164 160 157 159 157 157 156 154 153 155 154 152 151 149 152 149 146 143 142 142 144 148 149 151 150 151 151 149 146 140 117 93 76 73 70 72 74 64 59 53 48 45 44 47 53 55 55 55 50 48 45
149 189 195 203 240 310 296 302 305 26 40 35 70 65 63 68 76 75 53 52 59 70 80 71 72 60 57 55 33 63 60 58 83 108 114 130 134 136 140 139 138 138 142 148 169 173 164 163 161 163 162 164 164 162 161 162 162 158 157 157 161 159 156 154 154 156 156 161 164 169 173 180 188 191 201 218 244 259 278 296 310 327 347 3 11 10 11 12 16 17 22 31 36 41 41 39 36
144 197 226 235 273 314 312 336 18 50 37 26 60 58 61 67 76 79 65 62 65 71 79 78 106 90 70 62 61 80 96 76 91 108 119 133 137 138 137 140 139 141 141 147 172 169 162 168 168 169 167 171 171 170 170 168 169 169 168 167 170 169 168 167 169 171 173 178 182 193 197 211 225 232 244 248 262 269 275 283 288 297 305 312 317 317 319 320 325 326 328 340 348 355 9 17 20
110 168 232 264 287 301 314 35 40 51 31 30 59 67 71 73 68 72 65 66 66 58 60 66 111 100 81 74 73 74 88 91 96 107 126 134 136 136 137 141 138 142 141 154 184 165 162 174 173 178 175 177 179 179 181 178 178 178 178 177 179 181 182 180 182 185 189 201 208 220 225 235 245 255 262 262 265 270 275 281 286 292 294 297 298 296 296 296 299 298 299 304 305 306 311 319 333
219 218 215 229 281 216 6 38 55 59 37 38 55 59 70 77 64 57 51 53 67 53 58 81 94 81 73 79 73 68 90 95 99 110 130 137 136 137 138 139 138 142 142 165 190 162 165 179 178 186 183 184 184 187 190 189 189 188 189 186 187 191 194 191 192 200 206 221 237 247 252 254 260 263 268 271 272 273 276 277 280 282 282 285 286 289 291 288 288 286 287 289 287 288 288 288 289
233 234 233 230 269 161 46 42 57 58 57 50 44 48 67 85 81 76 67 47 74 67 52 61 49 74 79 73 66 76 105 108 110 118 135 142 141 141 139 141 144 142 148 176 185 160 170 184 186 189 190 194 190 193 197 197 197 196 198 197 199 202 207 211 210 218 226 236 247 255 262 264 265 266 267 270 274 276 278 281 281 283 285 289 294 298 299 298 297 293 291 286 280 277 275 276 276
232 231 239 264 320 39 38 45 53 54 62 56 44 50 56 70 79 85 90 76 74 76 67 66 70 81 78 63 69 106 117 117 117 126 140 145 144 145 144 145 147 147 165 193 189 166 177 185 190 191 193 197 196 201 206 206 205 201 205 209 212 216 220 227 232 236 241 242 244 249 257 263 266 266 267 268 270 274 277 282 285 290 296 298 300 302 304 304 304 301 298 293 286 277 270 268 268
244 236 233 286 15 37 30 44 58 60 64 62 51 55 55 59 73 81 80 86 69 79 87 71 81 88 87 80 104 120 121 114 112 131 140 142 147 147 146 146 149 152 170 203 195 172 181 186 188 192 195 198 201 206 215 219 215 210 212 218 223 229 232 236 241 245 249 249 251 254 258 262 268 269 269 271 273 277 281 284 286 289 294 296 297 298 299 300 300 299 297 295 292 284 275 267 264
264 271 229 337 28 36 35 40 55 68 59 52 45 62 77 72 79 90 78 90 71 69 52 43 120 117 107 119 123 128 130 114 110 129 139 142 148 145 147 148 152 154 158 182 189 172 179 186 186 190 193 197 204 210 222 228 227 226 224 228 233 237 240 245 249 253 256 259 260 259 261 262 264 267 269 273 277 280 282 282 282 283 287 290 291 293 293 294 294 293 292 292 289 284 279 270 264
274 318 337 29 38 36 37 40 42 59 53 47 42 63 86 83 92 107 93 94 72 68 46 56 128 120 105 114 119 136 136 123 120 127 135 141 145 146 151 151 155 154 155 168 184 184 174 177 184 189 192 196 202 210 219 224 238 243 242 243 244 248 249 251 254 257 260 262 265 266 267 267 267 269 272 274 276 277 279 280 281 282 283 284 285 287 288 289 290 288 286 285 283 280 277 273 268
282 323 17 38 43 35 29 37 36 46 47 47 42 54 78 94 115 111 100 83 62 68 74 87 109 101 113 121 113 137 136 135 129 119 120 135 142 151 157 157 158 155 157 165 172 187 184 177 180 179 188 198 203 211 222 232 254 266 263 262 260 263 262 260 259 258 260 261 264 266 264 264 266 268 270 272 272 274 276 278 278 278 279 279 279 279 283 286 287 285 282 279 278 277 275 273 270
319 349 41 39 39 33 23 31 38 47 48 50 47 59 76 91 98 93 87 82 69 79 95 91 90 92 130 134 138 144 139 141 125 111 123 144 151 156 158 161 160 159 166 165 163 176 184 174 180 174 178 185 194 221 252 266 271 286 278 275 272 270 268 268 265 264 265 265 264 266 265 263 265 266 269 269 269 271 272 275 275 274 274 275 275 277 281 283 283 280 278 275 271 271 272 271 268
348 18 54 43 40 33 23 28 39 48 46 55 58 66 78 77 78 85 82 88 87 83 86 73 74 95 114 119 135 140 134 132 119 119 147 154 162 158 154 162 165 162 163 166 164 172 170 164 182 177 132 128 69 36 355 254 233 246 264 268 269 266 265 265 266 266 263 262 262 264 266 266 268 269 269 269 268 270 271 273 272 271 270 271 274 278 281 278 278 277 275 273 268 265 265 267 268
11 42 51 45 46 40 32 29 35 49 50 57 55 66 87 77 71 91 86 87 90 81 80 78 89 104 109 115 125 132 128 123 116 130 150 155 168 169 168 165 167 162 157 163 156 171 178 167 186 204 85 71 68 68 251 252 255 260 270 272 272 272 267 266 266 264 262 263 263 263 265 266 269 269 270 271 272 272 272 272 272 272 273 274 277 279 280 278 276 274 272 271 268 264 262 266 267
42 54 49 46 49 46 46 44 42 52 56 60 56 61 89 101 88 105 92 80 90 87 83 89 99 102 107 115 124 130 124 122 136 150 162 183 183 184 180 173 171 151 155 148 117 125 169 139 135 143 141 127 149 194 233 249 265 272 278 276 277 278 273 270 267 266 266 267 268 268 270 270 272 273 273 273 273 274 275 276 277 278 277 278 281 280 279 278 276 274 271 270 269 265 262 263 265
48 56 58 58 60 59 54 58 53 54 61 65 69 64 86 119 129 109 94 83 89 93 93 99 102 104 112 116 126 131 129 143 161 165 173 183 188 202 177 157 182 68 99 142 100 25 14 93 121 144 174 187 212 235 248 253 264 269 274 273 271 271 270 269 266 268 267 266 270 273 274 276 279 279 275 274 275 277 279 281 281 280 280 280 281 281 280 276 274 274 272 271 269 267 264 261 262
44 54 71 74 77 79 65 59 51 48 58 60 67 65 79 113 122 103 94 86 80 82 97 110 111 122 130 126 131 134 142 163 171 173 179 170 170 222 126 61 27 357 3 34 43 21 14 21 124 178 209 233 249 255 261 261 267 271 273 269 262 258 262 266 266 270 268 268 274 273 272 275 280 283 283 281 280 282 283 283 281 281 283 284 284 285 285 279 271 269 269 269 268 269 267 262 259
50 54 70 78 77 79 68 60 55 51 54 59 63 64 66 82 95 94 89 84 80 73 81 113 126 135 138 139 143 141 146 157 165 162 159 168 136 42 47 46 41 15 13 33 38 55 8 355 109 164 199 209 234 252 262 264 270 274 268 261 255 255 263 269 270 271 269 270 273 273 270 270 274 280 285 285 284 284 285 283 282 286 287 288 288 286 287 281 270 263 264 266 268 269 269 264 260
63 65 67 77 77 73 68 54 55 61 52 56 62 64 68 70 77 82 82 77 79 93 105 121 131 135 135 140 148 147 145 146 154 148 133 151 128 73 82 73 61 45 312 52 55 92 46 337 84 96 137 187 219 252 270 274 280 283 274 264 259 267 272 272 272 273 273 269 267 269 269 269 273 276 280 281 283 284 284 283 286 292 293 292 291 288 287 282 273 267 265 262 264 265 265 266 266
64 78 73 71 75 73 71 55 52 61 49 55 64 66 74 76 77 84 95 110 102 96 112 121 124 132 130 133 144 146 140 140 139 144 149 142 132 126 139 137 15 328 256 55 32 37 52 25 59 75 75 65 49 8 311 298 289 282 281 277 270 278 281 275 274 276 276 270 264 265 267 270 274 277 281 281 283 286 287 288 292 297 298 297 297 295 291 283 275 273 270 261 257 255 253 252 255
77 82 77 71 77 77 76 69 57 50 41 56 68 71 74 75 80 84 97 117 120 111 115 121 122 125 125 123 132 148 147 149 141 140 152 140 145 152 112 78 40 28 48 67 33 31 53 59 66 64 53 35 26 28 1 330 302 284 295 294 285 288 287 282 282 278 276 275 270 268 270 273 281 288 290 287 290 295 296 298 302 305 308 310 309 309 302 288 278 277 274 266 258 256 255 251 249
78 75 86 88 85 85 92 93 80 63 50 58 72 80 80 82 86 83 90 110 125 131 137 140 140 135 140 141 136 156 154 150 141 128 124 132 152 137 85 79 69 51 59 76 68 58 57 55 61 48 38 34 13 36 51 26 34 22 331 307 307 309 295 296 304 294 288 286 281 279 283 287 294 299 300 300 304 305 306 311 315 319 322 320 317 320 312 299 299 296 288 281 270 265 262 259 258
77 94 99 96 93 104 113 98 87 78 65 58 78 90 91 92 91 84 87 103 122 134 140 143 144 139 144 147 138 140 136 127 108 92 87 115 107 80 74 72 68 59 63 74 72 61 50 50 58 50 40 43 39 59 81 71 62 37 352 350 10 13 350 339 355 348 334 317 308 308 308 308 309 309 311 314 315 316 323 325 325 329 329 324 323 326 320 314 321 321 311 301 290 280 274 271 266
99 103 93 91 104 110 98 92 93 90 83 62 66 77 64 70 84 85 91 106 120 120 118 123 121 118 122 120 115 107 107 101 84 78 76 67 64 68 66 61 67 69 71 74 67 59 53 56 60 52 40 41 49 56 68 67 60 33 2 40 50 40 31 16 13 8 359 347 346 344 333 328 328 331 331 329 325 329 336 333 334 336 339 337 332 335 338 335 335 334 330 319 309 303 297 290 279
115 103 108 110 112 97 98 121 118 106 98 98 100 95 65 60 77 95 109 114 105 87 76 82 82 87 99 95 90 79 80 82 79 77 72 69 68 68 62 63 75 72 66 62 58 58 54 55 58 51 40 38 46 58 74 69 53 38 25 37 55 52 39 25 14 5 6 16 17 13 7 2 2 359 350 345 340 341 346 347 349 348 351 347 341 351 355 348 344 343 340 330 318 316 312 305 298
97 120 150 94 86 96 154 144 115 109 105 124 164 128 81 69 84 99 116 113 94 78 64 71 78 80 85 85 80 70 71 73 75 70 66 71 73 70 63 65 75 62 55 58 56 63 61 57 57 51 39 35 51 69 77 79 63 53 53 56 67 65 50 42 33 23 24 28 30 27 27 26 26 22 12 10 5 359 3 6 5 1 358 350 350 3 3 356 353 349 345 339 329 326 323 314 306
112 182 191 64 10 278 188 144 122 126 124 154 196 145 80 81 108 114 121 120 103 103 93 95 95 74 72 72 67 71 74 69 73 71 67 72 73 72 66 68 73 54 50 66 60 66 77 76 67 57 50 43 61 80 77 80 74 66 71 73 74 66 55 51 46 47 40 33 37 38 37 37 35 31 26 23 19 17 19 16 10 6 360 353 357 2 2 4 2 353 349 346 343 342 338 327 318
145 132 133 218 212 259 210 162 149 143 144 174 196 72 99 112 135 117 107 104 83 109 136 124 106 79 80 81 99 97 83 78 77 75 77 78 71 67 68 74 75 50 48 73 66 71 83 81 73 66 67 71 91 97 86 81 78 74 75 76 77 69 61 56 49 51 45 35 40 41 37 40 36 33 31 27 27 25 23 24 14 6 6 3 2 0 359 3 359 354 352 348 347 348 348 344 337
303 136 190 215 212 222 192 159 160 158 157 181 189 73 105 124 125 103 101 113 111 229 174 132 128 122 130 153 183 149 93 93 91 82 86 84 65 63 65 69 69 53 59 72 64 69 78 72 66 61 62 72 86 90 86 86 83 79 78 78 78 73 67 62 53 48 42 34 36 34 30 35 33 30 28 25 28 24 16 22 15 4 10 12 7 4 3 2 356 356 356 349 348 350 352 352 346
253 239 203 199 220 221 159 159 173 165 156 183 208 100 99 125 126 120 143 152 187 222 175 118 131 140 145 158 175 144 104 97 94 88 91 82 69 73 71 69 66 60 69 76 69 67 68 62 62 64 65 67 74 79 79 82 83 80 81 79 74 70 65 58 52 47 39 33 31 28 26 29 27 24 24 23 25 22 11 13 14 8 11 11 8 9 6 2 358 358 359 355 352 351 353 354 350
216 235 233 188 200 219 160 173 177 163 168 187 204 101 108 137 140 144 171 163 192 221 154 127 121 93 129 139 149 134 117 104 100 97 96 85 78 79 77 82 80 70 75 79 80 74 66 64 64 69 72 70 75 78 75 74 75 75 77 76 70 64 59 54 49 43 38 33 27 27 26 25 24 21 19 20 20 19 11 9 11 9 9 6 6 9 3 360 1 359 359 2 360 353 355 358 353
288 324 324 214 190 205 149 160 163 161 189 161 105 96 124 149 154 156 178 159 174 238 141 134 129 135 139 108 111 127 119 108 106 101 94 85 85 84 82 96 97 88 83 79 81 86 87 85 79 79 78 76 77 76 75 72 71 70 68 67 62 55 54 51 45 40 37 34 29 30 31 26 25 20 16 18 15 12 10 8 7 3 3 1 1 4 357 358 4 1 358 2 3 355 353 356 352
321 328 276 289 106 120 94 117 148 159 198 133 119 164 158 166 165 157 174 161 179 209 156 136 132 141 126 84 23 93 108 100 100 101 100 98 103 103 101 106 104 95 88 80 85 93 97 97 95 94 91 88 84 79 78 74 72 66 56 50 48 48 49 43 42 45 43 43 42 40 37 34 30 23 20 21 17 14 15 11 4 358 358 357 356 356 355 359 1 357 357 0 359 353 351 354 349
296 290 262 306 7 63 85 105 130 144 207 128 143 185 171 171 167 162 173 166 191 202 172 167 146 127 108 135 277 276 103 110 117 114 113 113 115 116 108 108 107 98 90 88 94 94 92 97 101 102 100 99 95 85 80 78 79 69 56 50 46 48 50 40 35 39 40 39 40 40 35 32 32 27 25 26 18 14 16 11 4 360 357 356 355 355 360 5 360 353 355 357 354 351 351 351 348
288 291 280 308 322 120 99 99 119 147 230 137 155 178 171 173 165 167 176 172 198 201 180 176 167 167 163 184 235 207 137 144 147 135 126 122 119 116 104 106 109 101 93 95 102 100 96 99 103 103 102 100 96 89 84 81 82 75 70 71 58 49 47 42 33 28 30 26 23 31 30 25 26 24 23 24 14 7 8 7 4 6 4 360 360 1 4 8 2 355 354 354 352 353 353 348 346
286 284 280 289 324 77 105 104 113 164 237 146 173 193 176 174 166 172 179 180 196 201 194 186 184 190 172 170 201 201 183 175 163 146 137 136 127 117 108 110 111 104 96 98 103 104 102 102 106 109 107 102 97 92 88 80 78 77 75 74 66 51 38 37 34 22 22 20 15 18 22 20 21 19 18 19 13 5 5 5 3 7 7 359 1 4 2 5 4 356 353 354 353 352 353 349 346
260 274 293 285 41 53 100 126 139 192 211 143 203 224 166 165 166 175 185 187 188 201 223 211 200 197 179 177 188 197 202 185 173 156 142 147 140 124 119 116 111 108 109 112 112 110 108 104 103 104 102 97 94 90 85 78 73 70 65 62 59 52 40 43 44 23 16 17 11 9 11 9 9 12 11 10 9 4 3 3 360 4 5 357 360 7 4 6 5 351 345 353 357 351 350 353 351
263 264 272 284 359 329 311 126 158 197 196 169 209 235 168 167 174 178 187 190 187 190 208 237 231 189 178 190 188 189 206 197 184 168 150 146 136 125 125 120 112 109 113 117 115 111 111 107 99 97 98 98 98 94 86 79 70 60 57 57 53 44 32 33 33 22 16 12 6 6 5 1 2 4 3 1 360 360 0 358 357 1 3 358 2 11 7 4 2 347 340 349 0 353 349 356 355
286 295 294 333 349 316 320 130 195 205 194 191 217 257 190 171 177 174 176 186 190 189 192 202 203 169 176 197 190 179 195 207 197 172 154 141 128 125 128 125 122 120 122 125 116 105 99 100 100 102 107 106 103 97 88 82 74 64 59 58 53 38 24 24 21 10 8 7 3 3 359 358 4 359 354 355 353 357 360 355 358 2 1 0 1 7 5 358 357 346 339 349 358 352 353 358 355
281 340 333 334 317 291 295 274 246 237 218 192 205 238 160 157 191 176 175 189 191 191 197 192 180 184 194 197 186 173 184 202 203 180 157 142 133 132 130 125 122 125 131 133 121 109 102 104 109 108 108 102 94 88 82 78 71 67 63 56 51 39 26 25 18 1 0 4 1 2 354 354 8 3 354 352 350 357 0 354 358 1 359 360 356 359 359 353 354 345 340 353 353 345 355 358 348
280 330 299 293 289 285 294 296 284 277 277 172 195 231 146 114 229 185 180 200 192 187 202 195 189 205 206 197 191 173 177 196 202 188 160 143 139 135 130 122 115 119 125 128 128 125 118 117 114 109 103 94 88 82 75 69 63 59 57 52 48 38 26 23 12 354 354 358 358 2 349 344 6 10 356 349 349 357 357 352 357 357 356 357 351 354 355 351 354 344 341 353 347 341 354 354 343
255 247 236 275 297 300 303 304 293 288 300 278 233 271 264 123 180 183 189 212 200 193 203 199 199 209 205 200 195 168 172 199 204 186 157 138 138 135 129 121 115 117 124 129 131 129 124 119 113 108 101 92 87 81 72 66 59 54 51 46 39 33 25 17 7 356 353 355 358 359 347 342 358 4 353 349 351 353 351 351 356 354 355 353 342 346 350 350 351 340 339 348 341 341 349 349 351
270 286 330 311 288 283 281 275 280 296 299 298 309 306 314 106 146 180 194 211 211 203 199 201 205 205 200 197 184 155 160 190 216 188 150 136 143 140 127 118 116 119 124 126 124 125 126 122 116 109 99 90 84 74 65 60 53 48 44 35 26 22 17 8 4 358 352 353 356 352 346 348 357 0 356 352 350 349 349 354 357 355 354 345 336 344 347 347 345 338 341 344 342 347 348 350 3
294 322 327 284 267 261 262 277 322 318 296 314 323 302 284 155 203 205 196 207 219 201 182 201 208 196 194 187 146 126 148 180 198 184 151 140 142 134 122 114 114 118 121 120 118 122 126 123 117 106 93 84 75 65 57 51 48 43 34 24 17 10 7 9 3 348 344 349 348 344 346 351 358 2 357 349 345 348 353 356 355 352 347 339 343 351 349 346 346 345 347 346 345 356 357 355 6
287 296 278 277 283 269 257 339 16 319 287 306 294 278 274 72 206 207 200 209 218 192 178 195 197 185 188 153 111 126 173 187 183 168 147 135 124 118 116 114 119 122 122 121 117 119 120 115 109 100 91 82 69 60 50 44 43 35 23 15 10 0 4 18 1 340 345 354 348 347 352 353 357 1 354 344 340 349 2 353 340 342 347 345 349 350 346 345 347 347 350 351 352 2 5 359 7
255 264 268 274 278 275 276 329 316 257 270 275 273 278 293 79 122 166 184 201 218 227 193 180 173 182 171 118 111 165 188 182 172 147 116 110 106 103 112 120 129 130 126 125 121 119 115 107 106 104 96 85 67 47 37 37 35 25 14 7 4 1 12 22 356 339 354 0 350 353 357 354 358 359 351 345 343 352 1 343 332 342 350 348 346 345 343 341 346 350 354 357 357 1 3 1 10
228 228 244 260 266 279 287 280 270 275 279 265 272 292 307 104 96 128 150 152 134 141 156 156 167 179 145 123 141 188 186 172 154 121 106 126 127 120 123 131 135 132 129 131 128 122 114 110 113 106 93 79 53 34 30 32 23 13 6 3 5 10 19 17 352 346 0 360 352 356 359 357 357 352 350 351 345 343 343 338 341 348 345 341 342 343 341 338 342 349 355 3 359 356 359 3 12
243 229 230 247 262 274 277 279 279 281 282 270 273 300 77 115 89 96 102 103 91 94 125 141 158 146 124 129 157 180 174 163 133 116 145 161 146 135 133 137 138 134 133 136 134 125 116 115 109 90 75 55 35 30 29 24 14 8 7 4 7 17 21 8 350 356 5 359 358 3 0 358 356 352 355 351 335 329 335 348 357 353 345 342 341 340 339 340 342 345 359 11 359 349 358 5 10
257 251 231 234 257 272 277 282 278 276 289 305 314 7 79 105 122 115 107 112 98 96 130 140 137 132 126 130 147 161 166 149 119 130 162 162 149 136 133 139 141 136 135 136 130 119 113 109 95 70 42 22 24 30 24 20 11 4 9 8 3 10 19 5 354 8 10 358 0 4 358 360 0 354 348 337 329 336 349 1 6 360 349 345 344 341 337 339 344 346 7 19 358 343 356 7 9
257 257 244 243 255 260 266 261 260 271 290 307 311 98 103 106 111 101 99 118 110 104 134 136 135 141 134 130 141 150 142 126 126 152 161 157 144 131 135 144 143 141 141 139 126 113 112 103 78 35 14 10 22 28 20 20 13 1 7 13 5 5 14 7 3 17 16 0 360 3 3 9 2 343 329 330 340 356 3 5 7 4 353 346 346 344 340 345 354 354 11 21 357 340 355 12 11
242 254 258 266 246 248 271 274 274 291 294 292 307 103 111 96 94 114 120 140 138 121 126 141 160 156 139 132 133 121 111 118 144 156 150 148 138 134 148 150 145 151 148 134 118 110 111 96 42 5 19 19 12 15 12 16 17 9 12 15 7 6 11 10 8 17 22 11 0 1 15 17 352 326 325 336 347 5 15 9 1 2 357 348 347 351 355 2 3 2 12 12 352 340 358 17 13
232 256 268 273 264 262 281 290 293 289 272 283 352 98 108 47 127 147 168 166 143 126 140 163 176 172 147 124 103 97 110 136 158 155 147 146 141 142 154 147 139 144 140 122 109 103 96 71 32 31 43 27 19 19 14 20 24 18 17 11 1 5 11 13 12 14 22 18 4 1 15 10 345 331 340 352 356 6 22 17 2 1 0 349 348 359 8 8 5 9 24 14 347 341 5 20 13
222 242 252 251 263 279 280 262 264 268 273 284 293 114 118 69 67 92 186 170 139 140 168 169 171 174 132 103 98 111 135 153 157 152 149 151 145 132 137 142 132 125 125 119 111 98 74 59 51 50 45 33 34 26 4 21 27 16 19 11 359 6 15 16 12 11 17 16 8 6 9 356 343 351 7 10 6 4 10 18 12 8 5 348 346 359 7 8 7 10 32 25 348 340 6 20 11
225 224 232 240 254 271 269 253 255 269 285 291 287 344 89 52 14 7 73 122 118 133 157 166 178 162 112 103 128 150 150 151 148 142 145 152 146 126 130 142 137 125 118 109 100 82 73 80 69 54 45 42 47 354 345 12 30 14 17 15 3 7 17 17 7 4 13 13 10 10 6 355 352 8 17 13 9 2 357 9 16 7 356 342 344 358 4 7 10 6 24 29 355 343 3 15 10
258 241 222 225 231 244 258 257 256 258 259 275 295 14 95 99 1 19 71 93 106 125 145 168 164 120 103 114 149 151 143 145 140 137 144 148 142 132 135 143 141 131 118 103 89 81 95 96 85 68 59 45 23 353 349 14 34 16 13 14 2 0 12 13 3 3 13 13 11 11 7 5 6 11 12 7 6 4 359 11 21 4 348 341 337 342 349 356 2 358 14 29 6 353 1 9 9